New Iberia, LA

1:59 PM CDT on July 27, 2017 (GMT -0500)
Acadiana Regional

Weather History for KARA - October, 2012

Change the Weather History Date:

Monday, October 29, 2012

  Actual Average Record
Temperature  
Mean Temperature 55 °F 66 °F  
Max Temperature 68 °F 78 °F 87 °F (1984)
Min Temperature 41 °F 55 °F 30 °F (1952)
Degree Days  
Heating Degree Days 10 2  
Month to date heating degree days 33 26  
Since 1 July heating degree days 33 27  
Cooling Degree Days 0 4  
Month to date cooling degree days 193 182  
Year to date cooling degree days 3195 2738  
Growing Degree Days 4 (Base 50)    
Moisture  
Dew Point 35 °F    
Average Humidity 51    
Maximum Humidity 76    
Minimum Humidity 26    
Precipitation  
Precipitation 0.00 in 0.07 in 2.14 in (2002)
Month to date precipitation 0.49 4.84  
Year to date precipitation 46.57 50.32  
Sea Level Pressure  
Sea Level Pressure 30.19 in    
Wind  
Wind Speed 9 mph (North)    
Max Wind Speed 21 mph    
Max Gust Speed 26 mph    
Visibility 10 miles    
Events      
T = Trace of Precipitation, MM = Missing Value Source: NWS Daily Summary

Daily Weather History Graph

Daily Weather History Graph

Search for Another Location

Airport or City:

Trip Planner

Search our weather history database for the weather conditions in past years. The results will help you decide how hot, cold, wet, or windy it might be!

Date:

Astronomy

Oct. 29, 2012 Rise Set
Actual Time 7:19 AM CDT 6:22 PM CDT
Civil Twilight 6:54 AM CDT 6:47 PM CDT
Nautical Twilight 6:26 AM CDT 7:15 PM CDT
Astronomical Twilight 5:58 AM CDT 7:43 PM CDT
Moon 6:17 PM CDT (10/29) 7:08 AM CDT (10/29)
Length of Visible Light 11h 52m
Length of Day
11h 02m
Full, 100% of the Moon is Illuminated
Oct 29
Full
Oct 29
Full
Nov 6
Last Quarter
Nov 13
New
Nov 20
First Quarter

Hourly Weather History & Observations

Time (CDT) Temp. Windchill Dew Point Humidity Pressure Visibility Wind Dir Wind Speed Gust Speed Precip Events Conditions
12:53 AM 45.0 °F 40.6 °F 35.1 °F 68% 30.19 in 10.0 mi North 8.1 mph - N/A   Clear
1:53 AM 44.1 °F 39.5 °F 36.0 °F 73% 30.19 in 10.0 mi North 8.1 mph - N/A   Clear
2:53 AM 44.1 °F 39.5 °F 36.0 °F 73% 30.18 in 10.0 mi North 8.1 mph - N/A   Clear
3:53 AM 44.1 °F 39.5 °F 36.0 °F 73% 30.19 in 10.0 mi North 8.1 mph - N/A   Clear
4:53 AM 44.1 °F 40.8 °F 36.0 °F 73% 30.20 in 10.0 mi North 5.8 mph - N/A   Clear
5:53 AM 43.0 °F 40.3 °F 36.0 °F 76% 30.22 in 10.0 mi North 4.6 mph - N/A   Clear
6:53 AM 43.0 °F 39.5 °F 36.0 °F 76% 30.22 in 10.0 mi North 5.8 mph - N/A   Clear
7:53 AM 43.0 °F 40.3 °F 36.0 °F 76% 30.24 in 10.0 mi North 4.6 mph - N/A   Clear
8:53 AM 48.9 °F - 39.0 °F 69% 30.26 in 10.0 mi North 8.1 mph - N/A   Clear
9:53 AM 55.0 °F - 37.9 °F 53% 30.26 in 10.0 mi NNE 9.2 mph - N/A   Clear
10:53 AM 57.9 °F - 35.1 °F 42% 30.25 in 10.0 mi NNE 10.4 mph - N/A   Clear
11:53 AM 62.1 °F - 34.0 °F 35% 30.24 in 10.0 mi NNE 15.0 mph 21.9 mph N/A   Clear
12:53 PM 64.0 °F - 33.1 °F 31% 30.21 in 10.0 mi North 15.0 mph - N/A   Clear
1:53 PM 66.0 °F - 32.0 °F 28% 30.17 in 10.0 mi NNW 17.3 mph 23.0 mph N/A   Clear
2:53 PM 66.9 °F - 30.9 °F 26% 30.14 in 10.0 mi North 20.7 mph - N/A   Clear
3:53 PM 66.9 °F - 30.0 °F 25% 30.13 in 10.0 mi North 21.9 mph 25.3 mph N/A   Clear
4:53 PM 64.9 °F - 30.0 °F 27% 30.12 in 10.0 mi North 15.0 mph 23.0 mph N/A   Clear
5:53 PM 62.1 °F - 32.0 °F 32% 30.13 in 10.0 mi North 10.4 mph - N/A   Clear
6:53 PM 54.0 °F - 37.0 °F 53% 30.14 in 10.0 mi NNW 5.8 mph - N/A   Clear
7:53 PM 53.1 °F - 34.0 °F 48% 30.15 in 10.0 mi North 5.8 mph - N/A   Clear
8:53 PM 51.1 °F - 37.0 °F 59% 30.16 in 10.0 mi North 5.8 mph - N/A   Clear
9:53 PM 48.0 °F - 37.0 °F 66% 30.17 in 10.0 mi NNW 3.5 mph - N/A   Clear
10:53 PM 48.0 °F - 37.0 °F 66% 30.17 in 10.0 mi North 4.6 mph - N/A   Clear
11:53 PM 46.9 °F - 37.9 °F 71% 30.16 in 10.0 mi NW 3.5 mph - N/A   Clear